Simultaneous Nadir Overpasses (SNOs) Predictions

Prediction of SNOs between GOES-16 and AQUA Satellite Orbit:

Table of predicted SNOs for the next 14.0 days since TLE Epoch: 8/13/2022
Index Date Time (GOES-16) GOES-16 Lat,Lon AQUA Lat,Lon Distance(km) Time Diff (sec)
1 08/14/2022 18:35:04 -0.02, -75.20 0.35, -73.53 190.09 80
2 08/15/2022 06:56:12 0.02, -75.20 0.74, -78.65 392.01 80
3 08/17/2022 06:43:32 0.02, -75.22 0.11, -75.57 39.80 80
4 08/19/2022 06:28:13 0.02, -75.24 -0.59, -72.50 312.91 80
5 08/19/2022 18:49:30 -0.01, -75.25 -0.51, -77.66 273.28 80
6 08/21/2022 18:39:30 0.01, -75.28 0.15, -74.57 79.59 80
7 08/23/2022 18:26:50 0.01, -75.31 0.82, -71.50 433.43 80
8 08/24/2022 06:47:58 -0.01, -75.32 0.27, -76.62 147.89 80
9 08/26/2022 06:32:38 -0.00, -75.35 -0.42, -73.54 206.89 80
10 08/26/2022 18:53:54 0.00, -75.36 -0.72, -78.69 378.76 80
